Back to catalog

OPS 6582

TRANSIT 5E-5

AliveNavigationPO
NORAD 959·PAYLOAD·🇺🇸 United States

Launched Dec 13, 1964 from Vandenberg Space Force Base

Loading…

Next Passes (next 24 hours)

TLE

FreshSource: Space-Track

Epoch: Sep 14, 2026, 05:11 UTC

1 00959U 64083C   26257.21663451  .00000153  00000-0  18275-3 0  9999
2 00959  90.0154 187.4429 0043839  42.1063 122.8600 13.62518966 62332

Track OPS 6582 in real time with AllMySat

Download on the App Store